Location: Greylock Estates
(42.5420°N, 73.2279°W)
Time: 02:12:41
(UTC+00:00)

Daily predictions for brighter satellites

Satellite Brightness Start Highest point End
(mag) Time Altitude Azimuth Time Altitude Azimuth Time Altitude Azimuth
Cosmos 2360 Rocket 4.2 01:01:15 10° N 01:04:42 16° NE 01:08:08 10° E
Cosmos 1842 3.2 01:02:31 10° S 01:06:04 53° E 01:09:39 10° NNE
Centaur D AC-29 3.9 01:01:31 10° SW 01:06:35 29° SSE 01:24:23 10° ESE
Cosmos 407 Rocket 4.3 01:02:22 10° SW 01:07:30 57° WNW 01:12:36 10° NNE
Cosmos 540 Rocket 3.8 01:03:56 10° N 01:09:00 53° ENE 01:13:59 10° SE
BREEZE-M DEB (TANK) 1.9 01:09:45 10° SW 01:12:01 72° SSE 01:14:47 10° ENE
BREEZE-M DEB (TANK) 4.2 00:57:04 10° WSW 01:13:03 70° NW 01:16:55 10° NE
MOS 1-B Rocket 4.3 01:08:15 10° S 01:14:27 70° WSW 01:20:07 10° NNW
SL-16 R/B 3.2 01:10:55 10° N 01:16:05 34° ENE 01:21:12 10° ESE
RESURS DK-1 4.3 01:13:32 10° N 01:16:21 18° NE 01:19:09 10° E
Cosmos 2333 Rocket 4.1 01:13:41 10° N 01:17:38 19° NE 01:21:35 10° E
Cosmos 2082 Rocket 2.9 01:12:09 10° SW 01:17:47 63° WNW 01:23:27 10° NNE
Cosmos 2369 3.9 01:14:19 10° NNW 01:20:04 75° WSW 01:25:46 10° SSE
Cosmos 1954 Rocket 4.0 01:18:53 10° SSW 01:24:10 81° ESE 01:29:28 10° NNE
Atlas Centaur 2 3.7 01:17:42 10° WSW 01:24:47 35° S 01:32:04 10° ESE
Okean-O 2.6 01:22:15 10° SSE 01:26:39 88° W 01:31:05 10° NNW
SeaSat 1 3.2 01:22:40 10° SE 01:27:16 42° NE 01:31:53 10° NNW
EXPRESS MD2 3.6 01:24:05 10° WSW 01:27:29 47° NNW 01:29:48 10° NE
Cosmos 1515 Rocket 3.8 01:25:31 10° SSW 01:29:48 71° W 01:34:09 10° N
Cosmos 1707 2.5 01:27:39 10° S 01:31:15 87° E 01:34:52 10° N
Cosmos 676 Rocket 4.0 01:29:51 10° SSW 01:35:10 82° ESE 01:40:31 10° NNE
USA 245 3.9 01:32:54 14° SE 01:35:34 38° ENE 01:39:31 10° N
CZ-4C R/B 3.4 01:32:17 10° NNE 01:36:27 89° ESE 01:40:33 10° SSW
IRS-1A Rocket 4.3 01:31:48 10° SSE 01:37:13 66° ENE 01:42:42 10° N
SPOT 5 2.6 01:35:14 10° SSE 01:39:32 85° ENE 01:43:56 10° NNW
MetOp-B 4.1 01:35:24 10° SSE 01:40:45 86° ENE 01:46:08 10° NNW
Cosmos 1553 Rocket 4.1 01:34:58 10° N 01:41:11 85° W 01:47:27 10° S
Cosmos 2228 Rocket 4.2 01:41:13 15° SE 01:44:13 28° E 01:48:07 10° NNE
S3M 4.3 01:38:20 10° N 01:44:36 56° ENE 01:49:58 14° SSE
Okean O Rocket 3.4 01:43:17 10° SSW 01:47:04 28° W 01:50:50 10° NW
Tiangong -1.1 01:46:15 10° W 01:49:06 31° SSW 01:50:36 20° SSE
Cosmos 1869 Rocket 3.6 01:45:11 10° N 01:49:38 66° E 01:53:12 15° SSE
SL-4 R/B 4.3 01:48:16 10° WNW 01:51:21 23° N 01:54:36 10° NE
Cosmos 1356 Rocket 4.4 01:50:09 17° SE 01:52:34 30° E 01:56:16 10° NNE
Cosmos 2266 Rocket 4.1 01:47:27 10° S 01:53:41 69° E 02:00:04 10° NNE
Meteor 1-22 Rocket 4.4 01:49:12 10° N 01:54:50 64° ENE 01:59:32 16° SSE
ERS-1 Rocket 3.0 01:50:48 14° SSE 01:55:05 76° ENE 02:00:08 10° N
Cosmos 1655 Rocket 4.4 01:49:34 12° SSE 01:55:15 49° E 02:01:23 10° NNE
Cosmos 1400 Rocket 2.7 01:53:37 12° S 01:57:10 64° E 02:01:00 10° NNE
Cosmos 1980 Rocket 3.9 01:52:39 10° NW 01:57:22 28° WSW 02:02:04 10° SSW
Cosmos 841 Rocket 3.7 01:52:57 10° NNW 01:58:12 63° ENE 02:01:57 19° SE
Cosmos 2322 Rocket 2.8 01:53:42 10° NNW 01:59:11 46° ENE 02:03:10 18° SE
Timation 1 Rocket 4.3 01:54:41 10° SSW 02:00:36 71° ESE 02:06:32 10° NNE
USA 234 3.3 01:56:33 10° NE 02:03:07 86° NW 02:09:39 10° SW
ATLAS CENTAUR R/B 1.0 02:02:08 10° SSW 02:05:29 51° ESE 02:08:57 10° NE
Spot 2 Rocket 3.5 02:02:20 18° SSE 02:06:04 72° ENE 02:11:09 10° N
Cosmos 1300 3.2 02:04:25 10° N 02:07:47 39° ENE 02:09:14 26° SE
Cosmos 1441 Rocket 3.8 02:04:42 10° NNW 02:08:13 50° W 02:11:04 15° SSW
Cosmos 2278 3.9 02:05:15 10° NNW 02:10:57 72° WSW 02:15:10 18° SSE
Meteor 2-10 Rocket 3.7 02:06:15 10° N 02:11:48 67° ENE 02:15:21 21° SSE
Cosmos 1315 Rocket 4.4 02:14:28 18° ESE 02:15:04 19° E 02:17:53 10° NE
Cosmos 1908 4.4 02:13:01 10° NNW 02:16:21 36° W 02:19:19 12° SSW
Cosmos 1953 4.2 02:16:11 10° NNE 02:18:30 15° ENE 02:19:31 14° E
Terra 1.9 02:16:11 19° S 02:19:35 73° WSW 02:24:19 10° NNW
Cosmos 1862 Rocket 3.9 02:18:12 25° SSE 02:20:23 48° E 02:24:39 10° NNE
Cosmos 2219 Rocket 3.4 02:19:44 10° N 02:24:46 31° NE 02:28:14 17° ESE
Landsat 5 3.5 02:23:59 10° NNE 02:27:57 54° E 02:29:45 30° SSE
Ariane Rocket 3.1 02:27:25 21° S 02:30:48 73° WSW 02:35:54 10° NNW
Okean 3 3.6 02:32:22 33° SSE 02:33:55 54° E 02:37:59 10° NNE
BlueWalker 3 4.3 02:41:16 11° ENE 02:41:16 11° ENE 02:41:28 10° ENE
SL-27 R/B 2.0 02:38:03 45° SW 02:38:43 69° WNW 02:41:30 10° NNE
SL-14 R/B 3.5 02:37:34 22° SSW 02:39:54 62° W 02:43:40 10° N
Cosmos 2315 Rocket 4.1 02:34:04 10° N 02:40:28 82° W 02:44:42 23° S
Cosmos 1707 Rocket 3.6 02:38:10 23° SSW 02:40:56 81° W 02:45:24 10° N
COSMOS 2455 4.4 02:41:38 16° ESE 02:41:41 16° ESE 02:45:13 10° ENE
SJ 16-02 1.3 02:40:03 33° S 02:41:47 60° ESE 02:46:03 10° NNE
Cosmos 1850 Rocket 4.4 02:39:40 10° SSW 02:44:51 64° WNW 02:50:02 10° NNE
Landsat 4 4.4 02:44:04 27° SSW 02:45:24 41° W 02:48:41 10° NNW
ATLAS 2AS CENTAUR R/B 2.7 02:39:26 10° NNW 02:46:16 73° NE 02:50:03 27° SE
Meteor 1-4 Rocket 2.1 02:49:24 61° E 02:49:24 61° E 02:52:14 10° NNE
Cosmos 2360 Rocket 2.1 02:43:50 10° NNW 02:49:32 88° ENE 02:52:15 33° SSE
Cosmos 1346 Rocket 2.8 02:46:09 10° NNW 02:50:01 71° W 02:51:15 40° S
Cosmos 1932 4.4 02:46:56 11° SSW 02:53:03 71° ESE 02:59:19 10° NE
RESURS DK-1 3.0 02:50:25 10° NW 02:54:18 45° WSW 02:55:35 33° SSW
SPOT 3 Rocket 4.2 02:51:36 22° SSW 02:54:41 48° W 02:59:41 10° NNW
ARIANE 5 R/B 3.7 02:53:44 26° E 02:54:58 31° ENE 02:58:48 10° N
SL-16 R/B 3.2 02:55:01 10° NW 03:00:09 37° WSW 03:03:14 21° SSW
Cosmos 968 Rocket 3.8 02:57:17 14° SSW 03:01:40 65° WNW 03:06:50 10° NNE
USA 281 3.7 02:58:49 25° ESE 03:02:30 50° ENE 03:08:48 10° NNW
Cosmos 2333 Rocket 2.2 02:56:50 10° NNW 03:02:37 80° WSW 03:05:07 36° SSE
Cosmos 1733 Rocket 3.6 02:59:42 10° NNW 03:04:00 53° W 03:05:48 31° SSW
SeaSat 1 3.9 03:02:21 18° SSW 03:04:47 27° WSW 03:08:57 10° NW
Cosmos 1455 2.3 03:06:54 10° N 03:10:19 51° E 03:10:21 51° E
Okean 1-7 2.9 03:11:24 48° S 03:12:36 90° SE 03:16:57 10° N
Cosmos 839 Rocket 4.0 03:05:56 10° NNW 03:12:46 79° ENE 03:15:33 35° SE
Atlas Centaur 2 3.9 03:06:33 10° WSW 03:13:16 28° SSW 03:14:18 27° S
Cosmos 1814 Rocket 4.0 03:08:10 10° NNW 03:13:30 83° WSW 03:15:23 42° SSE
Cosmos 1242 Rocket 3.6 03:15:36 26° NE 03:15:36 26° NE 03:17:06 10° NNE
GP-B 3.3 03:11:07 10° NNE 03:15:26 51° E 03:16:05 47° ESE
Cosmos 1908 Rocket 3.5 03:13:28 10° N 03:17:48 67° E 03:18:33 55° SE
GENESIS II 4.4 03:20:54 50° ENE 03:20:54 50° ENE 03:23:52 10° NE
Cosmos 1782 Rocket 4.4 03:16:30 10° N 03:20:30 36° ENE 03:21:05 34° E
Cosmos 2237 Rocket 4.2 03:19:44 10° N 03:23:44 19° NE 03:27:33 11° E
Cosmos 1745 Rocket 4.2 03:24:04 38° SSE 03:26:17 56° E 03:32:29 10° NNE
Cosmos 2322 4.1 03:20:53 10° NNW 03:26:28 54° ENE 03:28:35 35° ESE
Cosmos 2227 Rocket 4.4 03:28:54 11° E 03:28:54 11° E 03:29:48 10° E
Cosmos 1408 4.3 03:31:03 19° NE 03:31:03 19° NE 03:32:18 10° NNE
SL-4 R/B 4.1 03:27:38 10° NW 03:31:03 26° NNE 03:34:36 10° ENE
Cosmos 2333 4.5 03:26:40 10° NNW 03:32:21 60° WSW 03:34:15 40° SSW
Okean 2 4.1 03:36:15 37° WSW 03:37:14 46° WNW 03:41:07 10° N
Nadezhda 1 Rocket 4.0 03:31:26 10° N 03:37:44 70° E 03:39:51 43° SSE
H-2A R/B 4.5 03:37:21 10° ENE 03:37:37 10° E 03:37:37 10° E
Cosmos 1300 Rocket 3.9 03:34:56 10° N 03:39:06 47° ENE 03:39:27 45° E
Cosmos 1386 Rocket 4.4 03:37:50 40° S 03:40:18 84° E 03:46:32 10° N
Cosmos 2322 Rocket 3.7 03:38:17 10° NW 03:42:55 26° WSW 03:44:58 21° SW
ATLAS CENTAUR R/B 4.0 03:41:20 10° WNW 03:43:27 15° NW 03:45:37 10° N
CENTAUR R/B 4.3 03:46:31 13° E 03:46:31 13° E 03:48:40 10° ENE
ALOS 2 3.5 03:45:46 34° E 03:46:25 36° ENE 03:50:27 10° N
Cosmos 2297 Rocket 3.0 03:47:54 32° ESE 03:48:10 32° ESE 03:53:08 10° NE
PSLV R/B 3.8 03:45:45 10° N 03:49:45 76° WNW 03:50:01 71° WSW
Cosmos 1315 Rocket 4.3 03:49:43 25° WSW 03:50:57 31° WNW 03:54:32 10° N
Cosmos 1953 3.2 03:50:57 10° NNW 03:54:28 35° W 03:54:38 35° W
Cosmos 1703 Rocket 4.3 03:55:52 38° WSW 03:56:59 46° WNW 04:01:18 10° N
Meteor 2-5 Rocket 4.2 03:59:22 42° SE 04:00:34 48° E 04:06:10 10° NNE
Cosmos 1486 Rocket 3.9 04:06:10 62° S 04:06:58 77° ESE 04:12:11 10° NNE
COSMOS 2428 2.6 04:02:09 10° NNW 04:07:53 90° WSW 04:09:13 55° SSE
Cosmos 2219 Rocket 2.9 04:03:30 10° NW 04:08:47 41° WSW 04:09:56 37° SW
Cosmos 2242 Rocket 3.5 04:10:52 78° S 04:11:11 90° ENE 04:15:46 10° N
Cosmos 371 Rocket 3.1 04:12:00 70° SE 04:12:18 72° ESE 04:17:07 10° NNE
BlueWalker 3 2.7 04:15:31 40° WNW 04:16:20 48° NNW 04:19:59 10° NE
SJ 16-02 4.0 04:18:17 10° W 04:20:33 14° WNW 04:22:50 10° NNW
Cosmos 405 Rocket 3.8 04:17:46 10° N 04:20:57 36° ENE 04:20:57 36° ENE
Cosmos 1354 Rocket 4.3 04:21:25 47° ESE 04:21:46 48° ESE 04:26:51 10° NNE
Cosmos 2263 Rocket 4.4 04:22:09 11° E 04:22:23 11° E 04:23:47 10° E
H-2A R/B 2.9 04:22:54 52° W 04:22:54 52° W 04:27:06 10° NNW
NOSS 0 Rocket 3.9 04:17:58 10° NNW 04:24:15 84° ENE 04:26:04 49° SSE
Cosmos 1709 Rocket 4.1 04:23:45 45° SSW 04:25:49 76° W 04:32:13 10° N
COSMOS 2455 2.8 04:24:43 43° SW 04:26:49 81° WNW 04:32:54 10° NNE
CZ-4C R/B 1.6 04:28:06 72° SW 04:28:35 86° NW 04:34:00 10° NE
ARIANE 5 R/B 4.1 04:31:12 24° W 04:31:22 24° W 04:34:53 10° NW
Spot 4 4.1 04:31:54 51° WSW 04:32:16 53° W 04:36:59 10° NNW
Cosmos 2360 Rocket 4.3 04:30:21 10° WNW 04:32:38 13° W 04:34:00 12° WSW
ATLAS 2AS CENTAUR R/B 4.0 04:31:31 10° WNW 04:36:25 22° WSW 04:37:28 21° WSW
Cosmos 1703 3.9 04:40:37 48° NW 04:40:37 48° NW 04:43:44 10° N
USA 281 4.1 04:45:41 30° SW 04:47:09 32° WSW 04:52:58 10° NW
Cosmos 1892 3.6 04:50:46 41° NE 04:50:46 41° NE 04:53:17 10° NNE
PSLV R/B 3.4 04:45:56 10° N 04:50:04 79° NW 04:50:04 79° NW
Okean 1 Rocket 3.9 04:46:26 10° N 04:50:31 39° ENE 04:50:52 38° E
Cosmos 2098 Rocket 4.0 04:45:33 10° N 04:52:11 78° W 04:53:52 52° SSW
CZ-2C R/B 4.5 04:50:22 27° WSW 04:52:44 42° WNW 05:10:03 10° N
Cosmos 2154 Rocket 4.4 04:54:44 41° SE 04:56:21 51° E 05:02:24 10° NNE
SL-16 R/B 3.7 04:55:55 10° N 05:01:00 32° NE 05:04:46 16° ESE
Cosmos 304 Rocket 4.5 05:01:27 40° W 05:02:23 45° WNW 05:06:59 10° N
Cosmos 332 Rocket 3.6 05:05:28 76° S 05:05:49 84° ESE 05:10:44 10° NNE
Cosmos 2237 Rocket 2.1 05:02:45 10° NNW 05:08:25 75° WSW 05:09:21 61° S
Cosmos 990 Rocket 4.2 05:08:21 52° ESE 05:08:45 53° ESE 05:13:45 10° NNE
SL-4 R/B 2.1 05:06:10 10° NW 05:10:19 73° NNE 05:10:26 73° NE
Meteor 1-24 Rocket 4.4 05:08:46 36° WSW 05:10:27 46° WNW 05:15:54 10° N
Cosmos 773 Rocket 4.3 05:06:16 10° NNW 05:11:13 49° WSW 05:11:26 48° WSW
Cosmos 2227 Rocket 2.1 05:10:41 60° S 05:11:44 82° ESE 05:17:26 10° NNE
H-2A R/B 2.1 05:10:11 10° N 05:14:24 66° WNW 05:14:25 66° WNW
Cosmos 2084 Rocket 3.8 05:18:12 55° WNW 05:18:31 57° NW 05:22:39 10° NNE
Cosmos 2151 Rocket 3.9 05:16:56 10° NNW 05:21:05 53° W 05:21:05 53° W
Cosmos 1980 3.8 05:15:56 10° NNW 05:21:27 54° WSW 05:22:05 52° SW
Cosmos 1825 3.0 05:23:12 41° NNW 05:23:12 41° NNW 05:25:46 10° N
ALOS 2 4.3 05:23:09 21° W 05:23:09 21° W 05:26:11 10° NW
GEOS 3 Rocket 3.5 05:18:49 10° NE 05:23:59 80° NW 05:25:12 53° SW
Cosmos 1538 Rocket 4.5 05:21:08 10° NNW 05:26:15 55° ENE 05:28:00 37° ESE
Cosmos 1455 Rocket 3.9 05:23:39 10° N 05:27:52 41° ENE 05:28:40 37° ESE
Okean 2 Rocket 3.5 05:23:38 10° NNW 05:27:55 50° W 05:27:55 50° W
Cosmos 1174 3.9 05:24:08 10° NNW 05:28:34 73° WNW 05:28:34 73° WNW
Cosmos 2181 Rocket 4.4 05:24:03 10° NNW 05:29:56 48° W 05:31:22 41° SW
BREEZE-M DEB (TANK) 3.3 05:25:31 10° WNW 05:31:53 47° N 05:33:31 22° ENE
Cosmos 2297 Rocket 3.2 05:29:40 26° WSW 05:32:05 38° WNW 05:37:20 10° N
Cosmos 1674 Rocket 4.3 05:32:54 39° W 05:33:08 40° WNW 05:37:14 10° N
Cosmos 2219 3.2 05:33:16 55° SSE 05:34:21 68° ESE 05:39:57 10° NNE
CENTAUR R/B 2.3 05:33:38 52° SW 05:35:11 90° ESE 05:42:03 10° NE
Cosmos 2074 Rocket 4.2 05:38:32 42° SW 05:40:21 58° W 05:46:30 10° N
Cosmos 1025 Rocket 2.9 05:40:57 80° WSW 05:41:06 82° W 05:45:27 10° N
Aureole 1 Rocket 3.1 05:42:32 54° ENE 05:42:32 54° ENE 05:46:09 10° NNE
ADEOS II 4.4 05:48:12 10° ENE 05:50:26 13° E 05:52:39 10° ESE
TIMED 4.3 05:51:00 75° SE 05:51:11 77° ESE 05:55:31 10° NNE
CRYOSAT 2 4.4 05:49:52 10° N 05:54:46 70° E 05:55:48 53° SSE
Helios 1A Rocket 2.9 05:58:05 62° E 05:58:21 64° ENE 06:02:07 10° N
Cosmos 1937 Rocket 4.0 05:58:26 41° SSE 05:59:43 51° ESE 06:04:48 10° NNE
Cosmos 1461 3.4 06:00:58 42° ESE 06:00:58 42° ESE 06:04:27 10° NE
Cosmos 1898 Rocket 3.4 06:01:58 53° S 06:03:08 76° ESE 06:08:19 10° NNE
MOZ.5/SAFIR/RUBIN 5/SL-8 4.4 06:01:24 30° SE 06:03:18 50° ENE 06:07:46 10° N
Resurs 1-4 Rocket 3.6 05:59:32 10° NE 06:04:00 27° E 06:06:19 20° SE
Cosmos 2263 Rocket 2.1 06:03:48 50° SSW 06:05:21 85° ESE 06:10:57 10° NNE
Elektron 3 4.2 06:12:50 10° NW 06:17:29 64° W 06:17:29 64° W
CZ-4C R/B 4.3 06:14:34 10° WNW 06:18:03 18° NNW 06:22:02 10° NNE
NOSS 3-2 (A) 3.3 06:18:58 38° WSW 06:20:57 66° NW 06:26:59 10° NNE
Cosmos 2218 Rocket 4.1 06:18:48 34° S 06:21:36 72° E 06:27:47 10° NNE
Cosmos 1844 Rocket 4.3 06:22:41 17° SE 06:25:23 25° ESE 06:29:49 10° NE
NOSS 3-2 (C) 3.2 06:25:20 42° S 06:26:57 64° ESE 06:32:50 10° NE
Cosmos 2366 rocket 4.0 06:25:40 35° S 06:28:31 85° E 06:34:48 10° N
Cosmos 1869 3.0 06:27:07 10° N 06:30:50 82° E 06:31:19 65° SSE
USA 267 4.3 06:28:19 10° ENE 06:33:57 31° SE 06:36:40 23° SSE
Cosmos 1680 Rocket 3.6 06:31:21 10° NNW 06:36:34 73° ENE 06:40:02 21° SSE
Cosmos 1818 3.7 06:32:59 10° NNW 06:38:29 77° NE 06:43:56 10° SE
Cosmos 2112 Rocket 4.3 06:33:38 10° NNW 06:38:47 65° ENE 06:42:52 16° SSE
Cosmos 1437 Rocket 4.0 06:37:53 25° SE 06:39:14 33° E 06:42:40 10° NNE
Cosmos 1544 Rocket 3.5 06:35:05 10° N 06:39:34 89° ESE 06:41:02 42° S
MSX 4.0 06:33:55 10° NNE 06:39:38 66° ESE 06:42:31 30° S
Cosmos 2228 3.1 06:39:18 10° N 06:43:38 72° E 06:45:26 34° SSE
SL-16 R/B 2.7 06:39:53 10° NW 06:45:10 40° WSW 06:46:35 34° SW
BREEZE-M DEB (TANK) 1.7 06:49:10 61° ESE 06:49:10 61° ESE 06:52:32 10° SE
Cosmos 1975 Rocket 4.2 06:49:56 26° W 06:50:53 29° WNW 06:54:42 10° NNW
SL-16 R/B 3.7 06:46:37 10° SE 06:52:24 42° ENE 06:58:11 10° N
Cosmos 2082 4.4 06:51:06 26° WSW 06:53:49 43° WNW 06:59:10 10° NNE
IDEFIX/ARIANE 42P 2.5 06:49:46 10° N 06:55:02 79° WNW 06:57:28 33° SSW
Cosmos 2227 Rocket 4.2 06:52:43 10° W 06:56:30 18° NW 07:00:17 10° N
H-2A R/B 3.3 06:54:40 10° N 06:58:40 76° WNW 06:59:56 42° SSW
CZ-2C R/B 2.6 06:55:47 21° SSE 06:59:20 89° ENE 07:04:44 10° NNW
SL-8 Rocket 4.4 06:57:09 29° SW 07:00:02 48° WNW 07:06:01 10° N
Cosmos 1943 3.2 06:54:27 10° NNW 07:00:06 85° ENE 07:05:43 10° SSE
CZ-2C R/B 3.2 06:55:31 10° NNE 07:00:55 70° ESE 07:03:51 26° S
CZ-2D R/B 2.1 06:59:22 10° NNE 07:04:44 89° ESE 07:07:38 28° SSW
FENGYUN 3A 3.9 07:02:26 10° NNE 07:07:47 63° ESE 07:11:22 21° S
Cosmos 1606 Rocket 4.2 07:10:41 10° N 07:15:04 56° E 07:19:15 11° SSE
Cosmos 921 Rocket 3.7 07:11:56 10° N 07:16:04 52° ENE 07:20:07 10° SSE
ASTEX 1 3.8 07:12:56 11° SSE 07:17:28 60° E 07:22:15 10° N
GRACE-FO 1 4.4 07:17:06 32° S 07:18:39 88° W 07:22:11 10° N
GRACE-FO 2 4.4 07:17:32 32° S 07:19:05 86° W 07:22:38 10° N
Cosmos 1606 4.0 07:16:54 10° NW 07:19:43 22° W 07:19:53 22° W
Cosmos 1536 Rocket 3.9 07:18:23 30° SW 07:20:20 53° W 07:24:41 10° N
Cosmos 1727 Rocket 4.0 07:14:02 10° N 07:20:22 77° W 07:25:41 15° S
Cosmos 2239 Rocket 4.5 07:16:20 19° S 07:20:54 84° E 07:27:04 10° N
NPP 4.1 07:16:32 10° N 07:21:42 48° WNW 07:24:45 23° SW
Cosmos 1867 3.6 07:20:35 25° SSW 07:23:49 85° ESE 07:29:19 10° NE
CENTAUR R/B 4.4 07:21:59 10° W 07:26:55 25° NNW 07:32:44 10° NNE
Cosmos 2227 4.5 07:24:37 23° SW 07:28:07 59° WNW 07:33:50 10° NNE
Cosmos 494 Rocket 4.1 07:24:19 10° NNW 07:29:34 82° ENE 07:34:49 10° SSE
Cosmos 1726 Rocket 4.0 07:26:11 10° N 07:30:36 61° E 07:34:57 10° SSE
ADEOS II 2.1 07:25:23 10° NNE 07:30:39 80° WNW 07:34:18 20° SSW
USA 238 DEB 3.5 07:28:50 22° SW 07:33:03 83° NW 07:39:46 10° NE
USA 238 3.5 07:28:52 22° SW 07:33:05 84° NW 07:39:49 10° NE
Cosmos 1000 Rocket 4.5 07:28:16 10° N 07:34:35 84° W 07:40:48 10° S
Cosmos 1812 3.9 07:33:18 10° N 07:36:42 39° ENE 07:40:02 10° SSE
Cosmos 1844 3.8 07:33:31 20° SSW 07:37:41 85° ESE 07:43:31 10° NNE
Cosmos 2058 4.0 07:36:42 10° SSE 07:40:29 40° E 07:44:19 10° NNE
Iridium 2 3.0 07:39:24 23° SSE 07:40:40 56° E 07:43:06 10° NNE
Resurs 1-4 Rocket 2.8 07:39:00 10° N 07:43:52 39° WNW 07:47:22 18° SW
SAR-Lupe-4 3.9 07:41:59 10° NNE 07:45:32 64° E 07:48:22 15° S
Iridium 4 Rocket 4.2 07:43:01 10° N 07:47:21 48° E 07:52:01 10° SSE
ATLAS 5 CENTAUR R/B 3.5 07:46:29 10° SE 07:47:56 12° ESE 07:49:26 10° E
Cosmos 2263 Rocket 4.2 07:46:27 10° W 07:50:00 17° NW 07:53:33 10° N
UNK 3.8 07:49:42 10° SSE 07:54:17 80° ENE 07:58:54 10° N
AQUA 4.1 07:51:42 10° N 07:56:19 54° WNW 08:00:00 15° SW
Meteor 1-28 Rocket 3.7 08:01:25 15° SSW 08:03:58 36° W 08:07:16 10° NNW
Cosmos 2058 Rocket 3.1 08:04:15 10° N 08:08:42 83° E 08:13:06 10° S
Cosmos 1844 Rocket 3.2 08:04:20 14° SW 08:08:55 48° WNW 08:14:19 10° NNE
ALOS 2.5 08:04:43 10° N 08:09:14 54° WNW 08:13:24 12° SSW
Cosmos 1892 Rocket 3.8 08:05:35 13° SSW 08:09:24 55° W 08:13:46 10° N
Delta 2 Rocket 4.4 08:07:47 14° WSW 08:10:23 26° S 08:13:59 10° SE
METEOR-M 4.4 08:05:21 10° NNE 08:10:42 71° ESE 08:16:01 10° S
Cosmos 1544 2.5 08:11:50 10° S 08:14:25 67° E 08:17:02 10° NNE
Cosmos 1607 3.9 08:08:02 10° NW 08:14:26 73° WSW 08:20:39 10° SSE
NOSS 2-2 (C) 4.0 08:13:46 10° S 08:16:53 34° ESE 08:19:45 10° NE
USA 267 3.4 08:10:47 10° NE 08:17:20 77° NW 08:23:50 10° WSW
Alouette 2 Rocket 3.8 08:14:22 10° SSW 08:19:12 53° WNW 08:22:53 10° N
Cosmos 1605 Rocket 4.0 08:14:11 10° S 08:20:23 89° E 08:26:33 10° N
CZ-4 R/B 3.9 08:24:40 10° NNE 08:29:36 85° WNW 08:34:35 10° SSW
NOSS 2-3 (C) 4.4 08:27:41 10° S 08:31:01 35° ESE 08:34:31 10° NE
Cosmos 2278 Rocket 4.3 08:27:02 10° SSE 08:31:22 23° E 08:35:43 10° NE
H-2A R/B 3.9 08:27:04 10° NE 08:31:43 30° E 08:36:14 10° SSE
SL-16 R/B 3.3 08:30:27 10° SSW 08:36:01 33° W 08:41:36 10° NNW
Cosmos 1626 Rocket 3.6 08:31:48 10° S 08:36:14 89° W 08:40:41 10° N
IRS-1D 3.9 08:33:28 10° NNE 08:38:38 69° ESE 08:43:40 10° S
